TimeMDT,TemperatureF,Dew PointF,Humidity,Sea Level PressureIn,VisibilityMPH,Wind Direction,Wind SpeedMPH,Gust SpeedMPH,PrecipitationIn,Events,Conditions,WindDirDegrees,DateUTC
12:52 AM,36.0,28.0,73,30.17,10.0,SE,3.5,-,N/A,,Overcast,140,2012-10-10 06:52:00
1:52 AM,30.9,24.1,76,30.16,10.0,Calm,Calm,-,N/A,,Clear,0,2012-10-10 07:52:00
2:52 AM,26.1,21.9,84,30.16,10.0,Calm,Calm,-,N/A,,Clear,0,2012-10-10 08:52:00
3:52 AM,25.0,21.9,88,30.14,10.0,Calm,Calm,-,N/A,,Clear,0,2012-10-10 09:52:00
4:52 AM,27.0,23.0,85,30.12,10.0,WNW,3.5,-,N/A,,Clear,290,2012-10-10 10:52:00
5:52 AM,26.1,21.0,81,30.12,10.0,Calm,Calm,-,N/A,,Clear,0,2012-10-10 11:52:00
6:52 AM,28.0,23.0,81,30.12,10.0,Calm,Calm,-,N/A,,Clear,0,2012-10-10 12:52:00
7:52 AM,37.0,27.0,67,30.08,10.0,Calm,Calm,-,N/A,,Clear,0,2012-10-10 13:52:00
8:52 AM,44.1,28.9,55,30.07,10.0,SSE,4.6,-,N/A,,Clear,150,2012-10-10 14:52:00
9:52 AM,52.0,28.9,41,30.05,10.0,SE,6.9,-,N/A,,Clear,140,2012-10-10 15:52:00
10:52 AM,60.1,28.9,31,30.00,10.0,SE,9.2,-,N/A,,Clear,140,2012-10-10 16:52:00
11:52 AM,64.0,25.0,23,29.96,10.0,South,8.1,18.4,N/A,,Clear,190,2012-10-10 17:52:00
12:52 PM,68.0,25.0,20,29.91,10.0,South,9.2,18.4,N/A,,Clear,190,2012-10-10 18:52:00
1:52 PM,70.0,24.1,18,29.87,9.0,West,9.2,-,N/A,,Clear,270,2012-10-10 19:52:00
2:52 PM,72.0,25.0,17,29.86,10.0,North,12.7,-,N/A,,Clear,350,2012-10-10 20:52:00
3:52 PM,72.0,25.0,17,29.85,10.0,ENE,9.2,-,N/A,,Clear,60,2012-10-10 21:52:00
4:52 PM,70.0,25.0,18,29.85,10.0,East,8.1,-,N/A,,Clear,80,2012-10-10 22:52:00
5:52 PM,63.0,25.0,24,29.87,10.0,NNE,8.1,-,N/A,,Clear,20,2012-10-10 23:52:00
6:52 PM,51.1,25.0,36,29.91,10.0,NNE,10.4,-,N/A,,Clear,30,2012-10-11 00:52:00
7:52 PM,51.1,27.0,39,29.91,10.0,Calm,Calm,-,N/A,,Clear,0,2012-10-11 01:52:00
8:52 PM,50.0,27.0,41,29.92,10.0,NW,8.1,-,N/A,,Clear,320,2012-10-11 02:52:00
9:52 PM,48.0,27.0,44,29.91,10.0,North,11.5,-,N/A,,Clear,350,2012-10-11 03:52:00
10:52 PM,50.0,28.9,44,29.92,10.0,NNW,12.7,-,N/A,,Clear,340,2012-10-11 04:52:00
11:52 PM,48.9,30.0,48,29.94,10.0,North,17.3,-,N/A,,Clear,360,2012-10-11 05:52:00